"Pseudo-MPEC" for C11ET15

Created 2025 Feb 9 22:31:04 UT using Find_Orb

Click here for an explanation of pseudo-MPECs

 
 Astrometry: 
     C11ET15* C2025 02 04.42677110 10 05.668+49 51 00.54   ~24B2 22.42GVNEOCPV00
     C11ET15  C2025 02 04.43238010 10 10.132+49 50 56.04   ~24B2 23.17GVNEOCPV00
     C11ET15  C2025 02 04.43799410 10 14.408+49 50 52.15   ~24B2 22.49GVNEOCPV00
     C11ET15  C2025 02 04.44361110 10 18.980+49 50 48.37   ~24B2 22.85GVNEOCPV00

Station data:
(V00) Kitt Peak-Bok  (N31.963125 W111.600190)  US/Arizona.  Observers T. A.
   Pruyne, B. M. Africano, E. J. Christensen, G. A. Farneth, D. C. Fuls, A.
   R. Gibbs, A. D. Grauer, H. Gröller, J. A. Johnson, R. A. Kowalski, S. M.
   Larson, G. J. Leonard, D. Rankin, R. L. Seaman, F. C. Shelly, K. W.
   Wierzchoś. 2.25-m reflector + 4x4K mosaic CCD.

Orbital elements:  C11ET15
   Perihelion 2025 Jan 3.05759 +/- 31.9 TT =  1:22:55 (JD 2460678.55759)
Epoch 2025 Feb  4.0 TT = JDT 2460710.5   Earth MOID: 0.0118      AutoNEOCP
M  11.01937782 +/- 15               (J2000 ecliptic)
n   0.34497637 +/- 0.275            Peri.  328.65873 +/- 80
a   2.01346064 +/- 1.07             Node   126.79929 +/- 70
e   0.5283573 +/- 0.248             Incl.   12.37721 +/- 6
P   2.85703                H 27.69  G  0.15   U 11.9  SR
q 0.94963386 +/- 0.107    Q 3.07728742 +/- 9.94
From 4 observations 2025 Feb. 4 (24.2 min); mean residual 0".44
Residuals in arcseconds: 
250204 V00  .00   .26+    250204 V00  .94-  .16-    
250204 V00  .47+  .32-    250204 V00  .47+  .21+    

Ephemerides (geocentric):
Date (UTC) HH   RA             Dec           delta  r     elong  mag " sig PA
---- --------  ------------   ------------  ------ ------ -----  --- --------
2025 02 09 23  10 58 00.863   +48 33 01.17  .09463 1.0627 141.8 24.1  46d  45
2025 02 10 00  10 58 13.336   +48 32 22.52  .09491 1.0629 141.8 24.2  47d  45
2025 02 10 01  10 58 25.724   +48 31 43.89  .09519 1.0632 141.8 24.2  47d  45
2025 02 10 02  10 58 38.028   +48 31 05.29  .09546 1.0634 141.7 24.2  47d  45
2025 02 10 03  10 58 50.247   +48 30 26.72  .09574 1.0636 141.7 24.2  47d  45
2025 02 10 04  10 59 02.383   +48 29 48.17  .09602 1.0638 141.7 24.2  47d  45
2025 02 10 05  10 59 14.436   +48 29 09.65  .09630 1.0641 141.7 24.2  47d  45
2025 02 10 06  10 59 26.407   +48 28 31.16  .09657 1.0643 141.7 24.2  47d  45
2025 02 10 07  10 59 38.298   +48 27 52.69  .09685 1.0645 141.7 24.2  47d  45
2025 02 10 08  10 59 50.107   +48 27 14.26  .09713 1.0648 141.7 24.2  47d  45
2025 02 10 09  11 00 01.837   +48 26 35.85  .09741 1.0650 141.7 24.2  48d  45
2025 02 10 10  11 00 13.488   +48 25 57.47  .09769 1.0652 141.7 24.2  48d  45
2025 02 10 11  11 00 25.060   +48 25 19.12  .09796 1.0654 141.7 24.2  48d  45
2025 02 10 12  11 00 36.554   +48 24 40.80  .09824 1.0657 141.7 24.2  48d  45
2025 02 10 13  11 00 47.970   +48 24 02.51  .09852 1.0659 141.7 24.2  48d  45
2025 02 10 14  11 00 59.311   +48 23 24.25  .09880 1.0661 141.7 24.2  48d  45
2025 02 10 15  11 01 10.575   +48 22 46.02  .09908 1.0664 141.7 24.2  48d  45
2025 02 10 16  11 01 21.764   +48 22 07.83  .09935 1.0666 141.7 24.3  48d  45
2025 02 10 17  11 01 32.878   +48 21 29.66  .09963 1.0668 141.7 24.3  48d  45
2025 02 10 18  11 01 43.918   +48 20 51.52  .09991 1.0670 141.6 24.3  48d  45
2025 02 10 19  11 01 54.884   +48 20 13.42  .10019 1.0673 141.6 24.3  48d  45
2025 02 10 20  11 02 05.777   +48 19 35.35  .10047 1.0675 141.6 24.3  49d  45
2025 02 10 21  11 02 16.598   +48 18 57.31  .10075 1.0677 141.6 24.3  49d  45
2025 02 10 22  11 02 27.348   +48 18 19.31  .10103 1.0680 141.6 24.3  49d  45
2025 02 10 23  11 02 38.026   +48 17 41.33  .10131 1.0682 141.6 24.3  49d  45
2025 02 11 00  11 02 48.633   +48 17 03.39  .10158 1.0684 141.6 24.3  49d  45
2025 02 11 01  11 02 59.171   +48 16 25.48  .10186 1.0687 141.6 24.3  49d  45
2025 02 11 02  11 03 09.638   +48 15 47.61  .10214 1.0689 141.6 24.3  49d  45
2025 02 11 03  11 03 20.037   +48 15 09.77  .10242 1.0691 141.6 24.3  49d  45
2025 02 11 04  11 03 30.368   +48 14 31.96  .10270 1.0693 141.6 24.3  49d  45
2025 02 11 05  11 03 40.631   +48 13 54.18  .10298 1.0696 141.6 24.3  49d  45
2025 02 11 06  11 03 50.826   +48 13 16.44  .10326 1.0698 141.6 24.3  49d  45
2025 02 11 07  11 04 00.954   +48 12 38.73  .10354 1.0700 141.6 24.4  49d  45
2025 02 11 08  11 04 11.017   +48 12 01.06  .10382 1.0703 141.6 24.4  49d  45
2025 02 11 09  11 04 21.013   +48 11 23.42  .10410 1.0705 141.6 24.4  49d  45
2025 02 11 10  11 04 30.944   +48 10 45.82  .10438 1.0707 141.6 24.4  50d  45
2025 02 11 11  11 04 40.811   +48 10 08.25  .10466 1.0710 141.6 24.4  50d  45
2025 02 11 12  11 04 50.613   +48 09 30.71  .10494 1.0712 141.6 24.4  50d  45
2025 02 11 13  11 05 00.352   +48 08 53.21  .10522 1.0714 141.6 24.4  50d  45
2025 02 11 14  11 05 10.027   +48 08 15.74  .10550 1.0717 141.6 24.4  50d  45
2025 02 11 15  11 05 19.640   +48 07 38.31  .10578 1.0719 141.6 24.4  50d  45
2025 02 11 16  11 05 29.191   +48 07 00.91  .10606 1.0721 141.5 24.4  50d  45
2025 02 11 17  11 05 38.679   +48 06 23.54  .10634 1.0724 141.5 24.4  50d  45
2025 02 11 18  11 05 48.107   +48 05 46.21  .10662 1.0726 141.5 24.4  50d  45
2025 02 11 19  11 05 57.473   +48 05 08.92  .10690 1.0728 141.5 24.4  50d  45
2025 02 11 20  11 06 06.779   +48 04 31.66  .10718 1.0731 141.5 24.4  50d  45
2025 02 11 21  11 06 16.025   +48 03 54.43  .10746 1.0733 141.5 24.4  50d  45
2025 02 11 22  11 06 25.212   +48 03 17.24  .10774 1.0735 141.5 24.4  50d  45